Starlink 5623

operational
NORAD ID: 55405 Int'l Des: 2023-014 Owner: SPXS Country: US Constellation: starlink
LEOCIRCULAR

About Starlink 5623

Description loading...

Live Position

Loading 3D Globe...

Upcoming Passes

Altitude History

Altitude vs Time

uPlot chart will show altitude changes over time

Two-Line Element Set

1 55405U 23014Q 25341.28838873 .00000344 00000-0 36654-4 0 9990
2 55405 69.9989 297.4694 0003154 272.6278 87.4520 14.98314514158212
Epoch: Dec 7, 2025 • Age: 18 hours

Current Status

Altitude 574.4 km
Velocity 7.57 km/s
Sub-Earth Point 1.76°N, 17.76°E
Launch Date Jan 31, 2023
Age 2.8 years
Type internet

Technical Details

Classification Payload
Mass 305.00 kg
Dry Mass 290.00 kg
Total Mass 305.00 kg
Length 0.20 m
Diameter 2.80 m
Span 9.00 m
Shape Box + pan
Manufacturer SPXS
Bus Type Starlink
Phase Status In Orbit
Owner/State SPXS/US

Large Constellations

Loading constellations...